Year,Month,Day,Hour,Minute,Value (Times are PST for insolation in W/m^2)
2007,04,18,00,00,0.00
2007,04,18,00,01,0.00
2007,04,18,00,02,0.00
2007,04,18,00,03,0.00
2007,04,18,00,04,0.00
2007,04,18,00,05,0.00
2007,04,18,00,06,0.00
2007,04,18,00,07,0.00
2007,04,18,00,08,0.00
2007,04,18,00,09,0.00
2007,04,18,00,10,0.00
2007,04,18,00,11,0.00
2007,04,18,00,12,0.00
2007,04,18,00,13,0.00
2007,04,18,00,14,0.00
2007,04,18,00,15,0.00
2007,04,18,00,16,0.00
2007,04,18,00,17,0.00
2007,04,18,00,18,0.00
2007,04,18,00,19,0.00
2007,04,18,00,20,0.00
2007,04,18,00,21,0.00
2007,04,18,00,22,0.00
2007,04,18,00,23,0.00
2007,04,18,00,24,0.00
2007,04,18,00,25,0.00
2007,04,18,00,26,0.00
2007,04,18,00,27,0.00
2007,04,18,00,28,0.00
2007,04,18,00,29,0.00
2007,04,18,00,30,0.00
2007,04,18,00,31,0.00
2007,04,18,00,32,0.00
2007,04,18,00,33,0.00
2007,04,18,00,34,0.00
2007,04,18,00,35,0.00
2007,04,18,00,36,0.00
2007,04,18,00,37,0.00
2007,04,18,00,38,0.00
2007,04,18,00,39,0.00
2007,04,18,00,40,0.00
2007,04,18,00,41,0.00
2007,04,18,00,42,0.00
2007,04,18,00,43,0.00
2007,04,18,00,44,0.00
2007,04,18,00,45,0.00
2007,04,18,00,46,0.00
2007,04,18,00,47,0.00
2007,04,18,00,48,0.00
2007,04,18,00,49,0.00
2007,04,18,00,50,0.00
2007,04,18,00,51,0.00
2007,04,18,00,52,0.00
2007,04,18,00,53,0.00
2007,04,18,00,54,0.00
2007,04,18,00,55,0.00
2007,04,18,00,56,0.00
2007,04,18,00,57,0.00
2007,04,18,00,58,0.00
2007,04,18,00,59,0.00
2007,04,18,01,00,0.00
2007,04,18,01,01,0.00
2007,04,18,01,02,0.00
2007,04,18,01,03,0.00
2007,04,18,01,04,0.00
2007,04,18,01,05,0.00
2007,04,18,01,06,0.00
2007,04,18,01,07,0.00
2007,04,18,01,08,0.00
2007,04,18,01,09,0.00
2007,04,18,01,10,0.00
2007,04,18,01,11,0.00
2007,04,18,01,12,0.00
2007,04,18,01,13,0.00
2007,04,18,01,14,0.00
2007,04,18,01,15,0.00
2007,04,18,01,16,0.00
2007,04,18,01,17,0.00
2007,04,18,01,18,0.00
2007,04,18,01,19,0.00
2007,04,18,01,20,0.00
2007,04,18,01,21,0.00
2007,04,18,01,22,0.00
2007,04,18,01,23,0.00
2007,04,18,01,24,0.00
2007,04,18,01,25,0.00
2007,04,18,01,26,0.00
2007,04,18,01,27,0.00
2007,04,18,01,28,0.00
2007,04,18,01,29,0.00
2007,04,18,01,30,0.00
2007,04,18,01,31,0.00
2007,04,18,01,32,0.00
2007,04,18,01,33,0.00
2007,04,18,01,34,0.00
2007,04,18,01,35,0.00
2007,04,18,01,36,0.00
2007,04,18,01,37,0.00
2007,04,18,01,38,0.00
2007,04,18,01,39,0.00
2007,04,18,01,40,0.00
2007,04,18,01,41,0.00
2007,04,18,01,42,0.00
2007,04,18,01,43,0.00
2007,04,18,01,44,0.00
2007,04,18,01,45,0.00
2007,04,18,01,46,0.00
2007,04,18,01,47,0.00
2007,04,18,01,48,0.00
2007,04,18,01,49,0.00
2007,04,18,01,50,0.00
2007,04,18,01,51,0.00
2007,04,18,01,52,0.00
2007,04,18,01,53,0.00
2007,04,18,01,54,0.00
2007,04,18,01,55,0.00
2007,04,18,01,56,0.00
2007,04,18,01,57,0.00
2007,04,18,01,58,0.00
2007,04,18,01,59,0.00
2007,04,18,02,00,0.00
2007,04,18,02,01,0.00
2007,04,18,02,02,0.00
2007,04,18,02,03,0.00
2007,04,18,02,04,0.00
2007,04,18,02,05,0.00
2007,04,18,02,06,0.00
2007,04,18,02,07,0.00
2007,04,18,02,08,0.00
2007,04,18,02,09,0.00
2007,04,18,02,10,0.00
2007,04,18,02,11,0.00
2007,04,18,02,12,0.00
2007,04,18,02,13,0.00
2007,04,18,02,14,0.00
2007,04,18,02,15,0.00
2007,04,18,02,16,0.00
2007,04,18,02,17,0.00
2007,04,18,02,18,0.00
2007,04,18,02,19,0.00
2007,04,18,02,20,0.00
2007,04,18,02,21,0.00
2007,04,18,02,22,0.00
2007,04,18,02,23,0.00
2007,04,18,02,24,0.00
2007,04,18,02,25,0.00
2007,04,18,02,26,0.00
2007,04,18,02,27,0.00
2007,04,18,02,28,0.00
2007,04,18,02,29,0.00
2007,04,18,02,30,0.00
2007,04,18,02,31,0.00
2007,04,18,02,32,0.00
2007,04,18,02,33,0.00
2007,04,18,02,34,0.00
2007,04,18,02,35,0.00
2007,04,18,02,36,0.00
2007,04,18,02,37,0.00
2007,04,18,02,38,0.00
2007,04,18,02,39,0.00
2007,04,18,02,40,0.00
2007,04,18,02,41,0.00
2007,04,18,02,42,0.00
2007,04,18,02,43,0.00
2007,04,18,02,44,0.00
2007,04,18,02,45,0.00
2007,04,18,02,46,0.00
2007,04,18,02,47,0.00
2007,04,18,02,48,0.00
2007,04,18,02,49,0.00
2007,04,18,02,50,0.00
2007,04,18,02,51,0.00
2007,04,18,02,52,0.00
2007,04,18,02,53,0.00
2007,04,18,02,54,0.00
2007,04,18,02,55,0.00
2007,04,18,02,56,0.00
2007,04,18,02,57,0.00
2007,04,18,02,58,0.00
2007,04,18,02,59,0.00
2007,04,18,03,00,0.00
2007,04,18,03,01,0.00
2007,04,18,03,02,0.00
2007,04,18,03,03,0.00
2007,04,18,03,04,0.00
2007,04,18,03,05,0.00
2007,04,18,03,06,0.00
2007,04,18,03,07,0.00
2007,04,18,03,08,0.00
2007,04,18,03,09,0.00
2007,04,18,03,10,0.00
2007,04,18,03,11,0.00
2007,04,18,03,12,0.00
2007,04,18,03,13,0.00
2007,04,18,03,14,0.00
2007,04,18,03,15,0.00
2007,04,18,03,16,0.00
2007,04,18,03,17,0.00
2007,04,18,03,18,0.00
2007,04,18,03,19,0.00
2007,04,18,03,20,0.00
2007,04,18,03,21,0.00
2007,04,18,03,22,0.00
2007,04,18,03,23,0.00
2007,04,18,03,24,0.00
2007,04,18,03,25,0.00
2007,04,18,03,26,0.00
2007,04,18,03,27,0.00
2007,04,18,03,28,0.00
2007,04,18,03,29,0.00
2007,04,18,03,30,0.00
2007,04,18,03,31,0.00
2007,04,18,03,32,0.00
2007,04,18,03,33,0.00
2007,04,18,03,34,0.00
2007,04,18,03,35,0.00
2007,04,18,03,36,0.00
2007,04,18,03,37,0.00
2007,04,18,03,38,0.00
2007,04,18,03,39,0.00
2007,04,18,03,40,0.00
2007,04,18,03,41,0.00
2007,04,18,03,42,0.00
2007,04,18,03,43,0.00
2007,04,18,03,44,0.00
2007,04,18,03,45,0.00
2007,04,18,03,46,0.00
2007,04,18,03,47,0.00
2007,04,18,03,48,0.00
2007,04,18,03,49,0.00
2007,04,18,03,50,0.00
2007,04,18,03,51,0.00
2007,04,18,03,52,0.00
2007,04,18,03,53,0.00
2007,04,18,03,54,0.00
2007,04,18,03,55,0.00
2007,04,18,03,56,0.00
2007,04,18,03,57,0.00
2007,04,18,03,58,0.00
2007,04,18,03,59,0.00
2007,04,18,04,00,0.00
2007,04,18,04,01,0.00
2007,04,18,04,02,0.00
2007,04,18,04,03,0.00
2007,04,18,04,04,0.00
2007,04,18,04,05,0.00
2007,04,18,04,06,0.00
2007,04,18,04,07,0.00
2007,04,18,04,08,0.00
2007,04,18,04,09,0.00
2007,04,18,04,10,0.00
2007,04,18,04,11,0.00
2007,04,18,04,12,0.00
2007,04,18,04,13,0.00
2007,04,18,04,14,0.00
2007,04,18,04,15,0.00
2007,04,18,04,16,0.00
2007,04,18,04,17,0.00
2007,04,18,04,18,0.00
2007,04,18,04,19,0.00
2007,04,18,04,20,0.00
2007,04,18,04,21,0.00
2007,04,18,04,22,0.00
2007,04,18,04,23,0.00
2007,04,18,04,24,0.00
2007,04,18,04,25,0.00
2007,04,18,04,26,0.00
2007,04,18,04,27,0.00
2007,04,18,04,28,0.00
2007,04,18,04,29,0.00
2007,04,18,04,30,0.00
2007,04,18,04,31,0.00
2007,04,18,04,32,0.00
2007,04,18,04,33,0.00
2007,04,18,04,34,0.00
2007,04,18,04,35,0.00
2007,04,18,04,36,0.00
2007,04,18,04,37,0.00
2007,04,18,04,38,0.00
2007,04,18,04,39,0.00
2007,04,18,04,40,0.00
2007,04,18,04,41,0.00
2007,04,18,04,42,0.00
2007,04,18,04,43,0.00
2007,04,18,04,44,0.00
2007,04,18,04,45,0.00
2007,04,18,04,46,0.00
2007,04,18,04,47,0.00
2007,04,18,04,48,0.00
2007,04,18,04,49,0.00
2007,04,18,04,50,0.00
2007,04,18,04,51,0.00
2007,04,18,04,52,0.00
2007,04,18,04,53,0.00
2007,04,18,04,54,0.00
2007,04,18,04,55,0.00
2007,04,18,04,56,0.00
2007,04,18,04,57,0.00
2007,04,18,04,58,0.00
2007,04,18,04,59,0.00
2007,04,18,05,00,0.00
2007,04,18,05,01,0.00
2007,04,18,05,02,0.00
2007,04,18,05,03,0.00
2007,04,18,05,04,0.00
2007,04,18,05,05,0.00
2007,04,18,05,06,0.00
2007,04,18,05,07,0.00
2007,04,18,05,08,0.00
2007,04,18,05,09,0.00
2007,04,18,05,10,0.00
2007,04,18,05,11,0.00
2007,04,18,05,12,0.00
2007,04,18,05,13,0.00
2007,04,18,05,14,0.00
2007,04,18,05,15,0.00
2007,04,18,05,16,0.00
2007,04,18,05,17,0.00
2007,04,18,05,18,0.00
2007,04,18,05,19,0.00
2007,04,18,05,20,0.00
2007,04,18,05,21,0.00
2007,04,18,05,22,0.00
2007,04,18,05,23,0.00
2007,04,18,05,24,0.00
2007,04,18,05,25,0.00
2007,04,18,05,26,0.00
2007,04,18,05,27,0.00
2007,04,18,05,28,0.00
2007,04,18,05,29,0.00
2007,04,18,05,30,0.00
2007,04,18,05,31,0.00
2007,04,18,05,32,0.00
2007,04,18,05,33,0.00
2007,04,18,05,34,0.00
2007,04,18,05,35,0.00
2007,04,18,05,36,0.00
2007,04,18,05,37,0.00
2007,04,18,05,38,0.00
2007,04,18,05,39,0.00
2007,04,18,05,40,0.00
2007,04,18,05,41,0.00
2007,04,18,05,42,0.00
2007,04,18,05,43,0.00
2007,04,18,05,44,0.00
2007,04,18,05,45,0.00
2007,04,18,05,46,0.00
2007,04,18,05,47,0.00
2007,04,18,05,48,0.00
2007,04,18,05,49,0.00
2007,04,18,05,50,0.00
2007,04,18,05,51,0.00
2007,04,18,05,52,0.00
2007,04,18,05,53,0.00
2007,04,18,05,54,0.00
2007,04,18,05,55,0.00
2007,04,18,05,56,0.00
2007,04,18,05,57,0.00
2007,04,18,05,58,0.00
2007,04,18,05,59,0.00
2007,04,18,06,00,0.00
2007,04,18,06,01,0.00
2007,04,18,06,02,0.00
2007,04,18,06,03,0.00
2007,04,18,06,04,0.00
2007,04,18,06,05,0.00
2007,04,18,06,06,0.00
2007,04,18,06,07,0.00
2007,04,18,06,08,0.00
2007,04,18,06,09,0.00
2007,04,18,06,10,0.00
2007,04,18,06,11,0.00
2007,04,18,06,12,0.00
2007,04,18,06,13,0.00
2007,04,18,06,14,0.00
2007,04,18,06,15,0.00
2007,04,18,06,16,0.00
2007,04,18,06,17,0.00
2007,04,18,06,18,0.00
2007,04,18,06,19,0.00
2007,04,18,06,20,0.00
2007,04,18,06,21,1.00
2007,04,18,06,22,5.00
2007,04,18,06,23,5.00
2007,04,18,06,24,5.00
2007,04,18,06,25,5.00
2007,04,18,06,26,5.40
2007,04,18,06,27,7.00
2007,04,18,06,28,7.00
2007,04,18,06,29,7.40
2007,04,18,06,30,9.00
2007,04,18,06,31,9.30
2007,04,18,06,32,11.00
2007,04,18,06,33,11.00
2007,04,18,06,34,11.20
2007,04,18,06,35,12.00
2007,04,18,06,36,12.40
2007,04,18,06,37,14.00
2007,04,18,06,38,14.40
2007,04,18,06,39,16.40
2007,04,18,06,40,18.20
2007,04,18,06,41,19.80
2007,04,18,06,42,23.40
2007,04,18,06,43,26.00
2007,04,18,06,44,30.40
2007,04,18,06,45,31.60
2007,04,18,06,46,29.70
2007,04,18,06,47,28.80
2007,04,18,06,48,32.60
2007,04,18,06,49,36.00
2007,04,18,06,50,40.00
2007,04,18,06,51,39.80
2007,04,18,06,52,38.60
2007,04,18,06,53,35.60
2007,04,18,06,54,30.00
2007,04,18,06,55,29.70
2007,04,18,06,56,28.00
2007,04,18,06,57,28.00
2007,04,18,06,58,28.00
2007,04,18,06,59,28.00
2007,04,18,07,00,28.00
2007,04,18,07,01,28.40
2007,04,18,07,02,30.00
2007,04,18,07,03,30.00
2007,04,18,07,04,30.00
2007,04,18,07,05,30.40
2007,04,18,07,06,32.00
2007,04,18,07,07,32.00
2007,04,18,07,08,32.20
2007,04,18,07,09,33.00
2007,04,18,07,10,33.00
2007,04,18,07,11,33.00
2007,04,18,07,12,33.00
2007,04,18,07,13,33.40
2007,04,18,07,14,35.00
2007,04,18,07,15,35.00
2007,04,18,07,16,35.00
2007,04,18,07,17,35.40
2007,04,18,07,18,37.40
2007,04,18,07,19,39.20
2007,04,18,07,20,40.00
2007,04,18,07,21,40.40
2007,04,18,07,22,43.10
2007,04,18,07,23,59.10
2007,04,18,07,24,100.60
2007,04,18,07,25,91.70
2007,04,18,07,26,74.40
2007,04,18,07,27,76.00
2007,04,18,07,28,79.00
2007,04,18,07,29,95.00
2007,04,18,07,30,86.60
2007,04,18,07,31,42.00
2007,04,18,07,32,42.00
2007,04,18,07,33,42.40
2007,04,18,07,34,44.40
2007,04,18,07,35,53.40
2007,04,18,07,36,83.00
2007,04,18,07,37,87.20
2007,04,18,07,38,68.40
2007,04,18,07,39,51.60
2007,04,18,07,40,41.70
2007,04,18,07,41,39.80
2007,04,18,07,42,38.60
2007,04,18,07,43,36.70
2007,04,18,07,44,35.00
2007,04,18,07,45,34.70
2007,04,18,07,46,33.00
2007,04,18,07,47,33.40
2007,04,18,07,48,35.00
2007,04,18,07,49,35.30
2007,04,18,07,50,37.30
2007,04,18,07,51,39.50
2007,04,18,07,52,42.40
2007,04,18,07,53,44.40
2007,04,18,07,54,46.20
2007,04,18,07,55,47.00
2007,04,18,07,56,47.40
2007,04,18,07,57,49.00
2007,04,18,07,58,49.00
2007,04,18,07,59,49.40
2007,04,18,08,00,51.00
2007,04,18,08,01,51.30
2007,04,18,08,02,53.00
2007,04,18,08,03,53.60
2007,04,18,08,04,56.90
2007,04,18,08,05,66.30
2007,04,18,08,06,98.50
2007,04,18,08,07,152.60
2007,04,18,08,08,225.40
2007,04,18,08,09,249.40
2007,04,18,08,10,209.00
2007,04,18,08,11,209.00
2007,04,18,08,12,187.20
2007,04,18,08,13,100.00
2007,04,18,08,14,99.70
2007,04,18,08,15,102.40
2007,04,18,08,16,120.00
2007,04,18,08,17,145.10
2007,04,18,08,18,274.40
2007,04,18,08,19,257.80
2007,04,18,08,20,306.10
2007,04,18,08,21,267.00
2007,04,18,08,22,267.00
2007,04,18,08,23,274.60
2007,04,18,08,24,308.60
2007,04,18,08,25,257.20
2007,04,18,08,26,202.00
2007,04,18,08,27,218.10
2007,04,18,08,28,308.40
2007,04,18,08,29,307.80
2007,04,18,08,30,303.30
2007,04,18,08,31,255.00
2007,04,18,08,32,312.80
2007,04,18,08,33,320.30
2007,04,18,08,34,322.10
2007,04,18,08,35,322.80
2007,04,18,08,36,322.50
2007,04,18,08,37,325.60
2007,04,18,08,38,329.00
2007,04,18,08,39,312.00
2007,04,18,08,40,239.20
2007,04,18,08,41,231.80
2007,04,18,08,42,283.40
2007,04,18,08,43,305.60
2007,04,18,08,44,326.00
2007,04,18,08,45,305.20
2007,04,18,08,46,286.40
2007,04,18,08,47,310.20
2007,04,18,08,48,385.10
2007,04,18,08,49,398.80
2007,04,18,08,50,408.80
2007,04,18,08,51,405.10
2007,04,18,08,52,398.60
2007,04,18,08,53,337.90
2007,04,18,08,54,307.10
2007,04,18,08,55,372.60
2007,04,18,08,56,353.60
2007,04,18,08,57,334.10
2007,04,18,08,58,346.00
2007,04,18,08,59,353.20
2007,04,18,09,00,362.80
2007,04,18,09,01,343.50
2007,04,18,09,02,333.60
2007,04,18,09,03,352.80
2007,04,18,09,04,355.60
2007,04,18,09,05,344.20
2007,04,18,09,06,326.90
2007,04,18,09,07,314.40
2007,04,18,09,08,319.40
2007,04,18,09,09,367.60
2007,04,18,09,10,371.30
2007,04,18,09,11,375.40
2007,04,18,09,12,381.80
2007,04,18,09,13,377.80
2007,04,18,09,14,411.40
2007,04,18,09,15,403.10
2007,04,18,09,16,402.50
2007,04,18,09,17,394.50
2007,04,18,09,18,395.60
2007,04,18,09,19,389.40
2007,04,18,09,20,383.80
2007,04,18,09,21,373.40
2007,04,18,09,22,400.90
2007,04,18,09,23,411.90
2007,04,18,09,24,418.20
2007,04,18,09,25,426.40
2007,04,18,09,26,434.00
2007,04,18,09,27,434.00
2007,04,18,09,28,434.60
2007,04,18,09,29,438.20
2007,04,18,09,30,438.80
2007,04,18,09,31,438.10
2007,04,18,09,32,440.40
2007,04,18,09,33,447.00
2007,04,18,09,34,444.40
2007,04,18,09,35,452.00
2007,04,18,09,36,452.80
2007,04,18,09,37,457.40
2007,04,18,09,38,459.30
2007,04,18,09,39,461.80
2007,04,18,09,40,465.00
2007,04,18,09,41,462.10
2007,04,18,09,42,468.80
2007,04,18,09,43,474.00
2007,04,18,09,44,480.30
2007,04,18,09,45,482.50
2007,04,18,09,46,485.60
2007,04,18,09,47,489.60
2007,04,18,09,48,492.60
2007,04,18,09,49,496.80
2007,04,18,09,50,502.00
2007,04,18,09,51,506.60
2007,04,18,09,52,510.80
2007,04,18,09,53,516.00
2007,04,18,09,54,522.80
2007,04,18,09,55,528.30
2007,04,18,09,56,537.00
2007,04,18,09,57,543.80
2007,04,18,09,58,548.90
2007,04,18,09,59,554.80
2007,04,18,10,00,559.80
2007,04,18,10,01,563.50
2007,04,18,10,02,566.30
2007,04,18,10,03,568.00
2007,04,18,10,04,568.00
2007,04,18,10,05,568.30
2007,04,18,10,06,570.50
2007,04,18,10,07,573.60
2007,04,18,10,08,577.50
2007,04,18,10,09,580.80
2007,04,18,10,10,585.90
2007,04,18,10,11,592.40
2007,04,18,10,12,599.30
2007,04,18,10,13,607.30
2007,04,18,10,14,617.00
2007,04,18,10,15,630.40
2007,04,18,10,16,641.90
2007,04,18,10,17,653.80
2007,04,18,10,18,666.60
2007,04,18,10,19,679.20
2007,04,18,10,20,692.50
2007,04,18,10,21,703.40
2007,04,18,10,22,712.80
2007,04,18,10,23,689.00
2007,04,18,10,24,689.00
2007,04,18,10,25,689.00
2007,04,18,10,26,643.40
2007,04,18,10,27,385.00
2007,04,18,10,28,427.10
2007,04,18,10,29,666.00
2007,04,18,10,30,688.70
2007,04,18,10,31,817.60
2007,04,18,10,32,815.50
2007,04,18,10,33,784.00
2007,04,18,10,34,784.00
2007,04,18,10,35,710.70
2007,04,18,10,36,318.40
2007,04,18,10,37,311.80
2007,04,18,10,38,330.90
2007,04,18,10,39,383.20
2007,04,18,10,40,430.20
2007,04,18,10,41,377.50
2007,04,18,10,42,324.10
2007,04,18,10,43,307.00
2007,04,18,10,44,302.00
2007,04,18,10,45,308.00
2007,04,18,10,46,308.00
2007,04,18,10,47,308.00
2007,04,18,10,48,308.00
2007,04,18,10,49,308.00
2007,04,18,10,50,308.00
2007,04,18,10,51,308.00
2007,04,18,10,52,308.00
2007,04,18,10,53,402.40
2007,04,18,10,54,939.40
2007,04,18,10,55,957.50
2007,04,18,10,56,983.00
2007,04,18,10,57,983.00
2007,04,18,10,58,983.00
2007,04,18,10,59,935.80
2007,04,18,11,00,668.00
2007,04,18,11,01,639.50
2007,04,18,11,02,483.10
2007,04,18,11,03,504.80
2007,04,18,11,04,463.20
2007,04,18,11,05,459.00
2007,04,18,11,06,490.40
2007,04,18,11,07,668.00
2007,04,18,11,08,721.00
2007,04,18,11,09,1025.20
2007,04,18,11,10,1036.40
2007,04,18,11,11,980.00
2007,04,18,11,12,1065.00
2007,04,18,11,13,1065.00
2007,04,18,11,14,966.50
2007,04,18,11,15,410.40
2007,04,18,11,16,429.70
2007,04,18,11,17,467.90
2007,04,18,11,18,503.10
2007,04,18,11,19,517.80
2007,04,18,11,20,534.00
2007,04,18,11,21,615.30
2007,04,18,11,22,1078.40
2007,04,18,11,23,1098.30
2007,04,18,11,24,1128.20
2007,04,18,11,25,1095.00
2007,04,18,11,26,1095.00
2007,04,18,11,27,998.00
2007,04,18,11,28,447.20
2007,04,18,11,29,444.40
2007,04,18,11,30,456.60
2007,04,18,11,31,483.00
2007,04,18,11,32,483.00
2007,04,18,11,33,484.60
2007,04,18,11,34,494.00
2007,04,18,11,35,494.00
2007,04,18,11,36,508.70
2007,04,18,11,37,592.00
2007,04,18,11,38,592.00
2007,04,18,11,39,592.00
2007,04,18,11,40,578.30
2007,04,18,11,41,500.40
2007,04,18,11,42,497.00
2007,04,18,11,43,510.00
2007,04,18,11,44,584.00
2007,04,18,11,45,584.00
2007,04,18,11,46,576.80
2007,04,18,11,47,537.70
2007,04,18,11,48,548.50
2007,04,18,11,49,557.00
2007,04,18,11,50,557.00
2007,04,18,11,51,637.40
2007,04,18,11,52,1093.00
2007,04,18,11,53,1093.00
2007,04,18,11,54,1093.00
2007,04,18,11,55,1026.10
2007,04,18,11,56,641.80
2007,04,18,11,57,612.00
2007,04,18,11,58,612.00
2007,04,18,11,59,673.20
2007,04,18,12,00,1020.80
2007,04,18,12,01,1027.40
2007,04,18,12,02,1039.70
2007,04,18,12,03,1029.30
2007,04,18,12,04,1012.70
2007,04,18,12,05,1003.80
2007,04,18,12,06,995.00
2007,04,18,12,07,980.80
2007,04,18,12,08,960.50
2007,04,18,12,09,944.70
2007,04,18,12,10,936.40
2007,04,18,12,11,931.80
2007,04,18,12,12,925.20
2007,04,18,12,13,926.30
2007,04,18,12,14,929.00
2007,04,18,12,15,937.10
2007,04,18,12,16,951.10
2007,04,18,12,17,965.20
2007,04,18,12,18,977.30
2007,04,18,12,19,977.50
2007,04,18,12,20,967.70
2007,04,18,12,21,960.30
2007,04,18,12,22,962.00
2007,04,18,12,23,962.80
2007,04,18,12,24,967.00
2007,04,18,12,25,966.70
2007,04,18,12,26,964.20
2007,04,18,12,27,959.40
2007,04,18,12,28,957.70
2007,04,18,12,29,954.10
2007,04,18,12,30,893.60
2007,04,18,12,31,965.00
2007,04,18,12,32,966.80
2007,04,18,12,33,977.00
2007,04,18,12,34,983.50
2007,04,18,12,35,1024.30
2007,04,18,12,36,1046.20
2007,04,18,12,37,1030.00
2007,04,18,12,38,1030.00
2007,04,18,12,39,1030.00
2007,04,18,12,40,1028.50
2007,04,18,12,41,1007.80
2007,04,18,12,42,939.00
2007,04,18,12,43,879.20
2007,04,18,12,44,540.00
2007,04,18,12,45,540.00
2007,04,18,12,46,540.00
2007,04,18,12,47,540.00
2007,04,18,12,48,540.00
2007,04,18,12,49,588.80
2007,04,18,12,50,865.00
2007,04,18,12,51,763.00
2007,04,18,12,52,189.20
2007,04,18,12,53,213.00
2007,04,18,12,54,213.00
2007,04,18,12,55,216.60
2007,04,18,12,56,237.00
2007,04,18,12,57,237.00
2007,04,18,12,58,338.90
2007,04,18,12,59,916.00
2007,04,18,13,00,916.00
2007,04,18,13,01,819.20
2007,04,18,13,02,271.00
2007,04,18,13,03,365.40
2007,04,18,13,04,901.80
2007,04,18,13,05,914.10
2007,04,18,13,06,926.60
2007,04,18,13,07,931.00
2007,04,18,13,08,936.20
2007,04,18,13,09,932.00
2007,04,18,13,10,932.00
2007,04,18,13,11,924.00
2007,04,18,13,12,877.70
2007,04,18,13,13,870.30
2007,04,18,13,14,872.50
2007,04,18,13,15,875.00
2007,04,18,13,16,875.30
2007,04,18,13,17,874.20
2007,04,18,13,18,860.10
2007,04,18,13,19,872.50
2007,04,18,13,20,875.60
2007,04,18,13,21,880.00
2007,04,18,13,22,887.80
2007,04,18,13,23,897.20
2007,04,18,13,24,893.00
2007,04,18,13,25,893.00
2007,04,18,13,26,892.20
2007,04,18,13,27,888.00
2007,04,18,13,28,886.00
2007,04,18,13,29,872.80
2007,04,18,13,30,860.00
2007,04,18,13,31,751.40
2007,04,18,13,32,177.20
2007,04,18,13,33,207.00
2007,04,18,13,34,288.30
2007,04,18,13,35,749.00
2007,04,18,13,36,749.00
2007,04,18,13,37,706.20
2007,04,18,13,38,472.40
2007,04,18,13,39,520.00
2007,04,18,13,40,478.90
2007,04,18,13,41,240.40
2007,04,18,13,42,207.90
2007,04,18,13,43,200.50
2007,04,18,13,44,190.60
2007,04,18,13,45,181.40
2007,04,18,13,46,171.20
2007,04,18,13,47,166.20
2007,04,18,13,48,161.10
2007,04,18,13,49,155.90
2007,04,18,13,50,154.70
2007,04,18,13,51,153.30
2007,04,18,13,52,155.10
2007,04,18,13,53,155.90
2007,04,18,13,54,155.00
2007,04,18,13,55,155.00
2007,04,18,13,56,153.90
2007,04,18,13,57,147.10
2007,04,18,13,58,141.20
2007,04,18,13,59,137.30
2007,04,18,14,00,139.30
2007,04,18,14,01,141.00
2007,04,18,14,02,141.50
2007,04,18,14,03,145.40
2007,04,18,14,04,154.50
2007,04,18,14,05,164.90
2007,04,18,14,06,177.40
2007,04,18,14,07,185.80
2007,04,18,14,08,190.80
2007,04,18,14,09,197.10
2007,04,18,14,10,211.40
2007,04,18,14,11,228.40
2007,04,18,14,12,256.10
2007,04,18,14,13,305.80
2007,04,18,14,14,336.00
2007,04,18,14,15,395.10
2007,04,18,14,16,438.00
2007,04,18,14,17,438.00
2007,04,18,14,18,528.50
2007,04,18,14,19,1043.20
2007,04,18,14,20,1055.80
2007,04,18,14,21,1056.80
2007,04,18,14,22,1065.10
2007,04,18,14,23,1053.70
2007,04,18,14,24,1049.40
2007,04,18,14,25,1055.20
2007,04,18,14,26,984.70
2007,04,18,14,27,1021.20
2007,04,18,14,28,980.30
2007,04,18,14,29,962.60
2007,04,18,14,30,945.80
2007,04,18,14,31,927.20
2007,04,18,14,32,921.30
2007,04,18,14,33,911.00
2007,04,18,14,34,904.00
2007,04,18,14,35,897.50
2007,04,18,14,36,894.40
2007,04,18,14,37,890.70
2007,04,18,14,38,888.50
2007,04,18,14,39,885.70
2007,04,18,14,40,883.70
2007,04,18,14,41,881.80
2007,04,18,14,42,880.70
2007,04,18,14,43,878.40
2007,04,18,14,44,874.20
2007,04,18,14,45,869.70
2007,04,18,14,46,868.60
2007,04,18,14,47,873.50
2007,04,18,14,48,882.00
2007,04,18,14,49,882.00
2007,04,18,14,50,790.00
2007,04,18,14,51,269.00
2007,04,18,14,52,269.00
2007,04,18,14,53,257.50
2007,04,18,14,54,192.00
2007,04,18,14,55,190.10
2007,04,18,14,56,177.90
2007,04,18,14,57,171.90
2007,04,18,14,58,170.40
2007,04,18,14,59,166.70
2007,04,18,15,00,166.10
2007,04,18,15,01,174.70
2007,04,18,15,02,193.60
2007,04,18,15,03,220.90
2007,04,18,15,04,260.00
2007,04,18,15,05,260.00
2007,04,18,15,06,260.00
2007,04,18,15,07,324.00
2007,04,18,15,08,692.50
2007,04,18,15,09,724.00
2007,04,18,15,10,724.00
2007,04,18,15,11,699.20
2007,04,18,15,12,559.00
2007,04,18,15,13,576.40
2007,04,18,15,14,661.50
2007,04,18,15,15,579.50
2007,04,18,15,16,552.00
2007,04,18,15,17,578.90
2007,04,18,15,18,602.30
2007,04,18,15,19,610.00
2007,04,18,15,20,612.80
2007,04,18,15,21,631.10
2007,04,18,15,22,645.00
2007,04,18,15,23,653.90
2007,04,18,15,24,639.90
2007,04,18,15,25,626.00
2007,04,18,15,26,615.00
2007,04,18,15,27,613.70
2007,04,18,15,28,608.70
2007,04,18,15,29,629.50
2007,04,18,15,30,665.50
2007,04,18,15,31,692.80
2007,04,18,15,32,705.50
2007,04,18,15,33,718.40
2007,04,18,15,34,714.00
2007,04,18,15,35,706.50
2007,04,18,15,36,695.30
2007,04,18,15,37,679.50
2007,04,18,15,38,676.70
2007,04,18,15,39,676.70
2007,04,18,15,40,686.50
2007,04,18,15,41,686.90
2007,04,18,15,42,674.40
2007,04,18,15,43,670.80
2007,04,18,15,44,670.00
2007,04,18,15,45,670.80
2007,04,18,15,46,676.30
2007,04,18,15,47,685.00
2007,04,18,15,48,691.30
2007,04,18,15,49,693.00
2007,04,18,15,50,693.20
2007,04,18,15,51,693.80
2007,04,18,15,52,693.00
2007,04,18,15,53,692.40
2007,04,18,15,54,689.00
2007,04,18,15,55,689.60
2007,04,18,15,56,694.20
2007,04,18,15,57,702.70
2007,04,18,15,58,712.80
2007,04,18,15,59,718.30
2007,04,18,16,00,727.80
2007,04,18,16,01,738.90
2007,04,18,16,02,744.20
2007,04,18,16,03,748.50
2007,04,18,16,04,768.00
2007,04,18,16,05,768.00
2007,04,18,16,06,768.00
2007,04,18,16,07,768.00
2007,04,18,16,08,768.00
2007,04,18,16,09,721.70
2007,04,18,16,10,459.00
2007,04,18,16,11,459.00
2007,04,18,16,12,459.00
2007,04,18,16,13,459.00
2007,04,18,16,14,425.00
2007,04,18,16,15,228.90
2007,04,18,16,16,209.60
2007,04,18,16,17,201.60
2007,04,18,16,18,199.00
2007,04,18,16,19,198.10
2007,04,18,16,20,188.80
2007,04,18,16,21,163.60
2007,04,18,16,22,155.20
2007,04,18,16,23,149.60
2007,04,18,16,24,141.20
2007,04,18,16,25,137.30
2007,04,18,16,26,139.00
2007,04,18,16,27,141.40
2007,04,18,16,28,156.50
2007,04,18,16,29,166.50
2007,04,18,16,30,179.90
2007,04,18,16,31,185.00
2007,04,18,16,32,186.50
2007,04,18,16,33,196.80
2007,04,18,16,34,209.40
2007,04,18,16,35,223.60
2007,04,18,16,36,226.70
2007,04,18,16,37,223.60
2007,04,18,16,38,216.00
2007,04,18,16,39,218.40
2007,04,18,16,40,233.70
2007,04,18,16,41,259.10
2007,04,18,16,42,315.40
2007,04,18,16,43,276.60
2007,04,18,16,44,270.40
2007,04,18,16,45,279.40
2007,04,18,16,46,288.20
2007,04,18,16,47,296.60
2007,04,18,16,48,307.50
2007,04,18,16,49,315.20
2007,04,18,16,50,311.30
2007,04,18,16,51,314.50
2007,04,18,16,52,323.60
2007,04,18,16,53,327.80
2007,04,18,16,54,333.60
2007,04,18,16,55,344.50
2007,04,18,16,56,355.00
2007,04,18,16,57,368.90
2007,04,18,16,58,390.90
2007,04,18,16,59,423.00
2007,04,18,17,00,418.20
2007,04,18,17,01,425.00
2007,04,18,17,02,428.90
2007,04,18,17,03,450.00
2007,04,18,17,04,445.20
2007,04,18,17,05,411.80
2007,04,18,17,06,354.70
2007,04,18,17,07,327.50
2007,04,18,17,08,312.70
2007,04,18,17,09,299.30
2007,04,18,17,10,302.90
2007,04,18,17,11,309.20